PRASB SBSJ-SBSP

Flight info

Callsign PRASB
Flight time N/A
Altitude 9000
Route VUSM3A UKDAN OGTA2A
Aircraft SF50/L-SDFGRY/S

Departure

Time 2026-04-25 01:24
Airport Professor Urbano Ernesto Stumpf Airport (SBSJ)

Arrival

Time N/A
Airport Congonhas–Deputado Freitas Nobre Airport (SBSP)
Time Latitude Longitude Altitude Speed Heading
2026-04-25 01:10 -23.22149 -45.86692 2124 ft 0 kts 135°
2026-04-25 01:19 -23.22150 -45.86691 2124 ft 0 kts 138°
2026-04-25 01:19 -23.22175 -45.86688 2124 ft 4 kts 199°
2026-04-25 01:19 -23.22182 -45.86705 2124 ft 2 kts 311°
2026-04-25 01:19 -23.22149 -45.86743 2124 ft 11 kts 314°
2026-04-25 01:20 -23.22084 -45.86834 2124 ft 18 kts 306°
2026-04-25 01:20 -23.22028 -45.86920 2124 ft 10 kts 305°
2026-04-25 01:20 -23.21992 -45.86977 2124 ft 8 kts 306°
2026-04-25 01:20 -23.21957 -45.87030 2124 ft 8 kts 305°
2026-04-25 01:21 -23.21921 -45.87087 2124 ft 9 kts 301°
2026-04-25 01:21 -23.21914 -45.87115 2124 ft 0 kts 264°
2026-04-25 01:23 -23.21925 -45.87140 2124 ft 12 kts 229°
2026-04-25 01:23 -23.21996 -45.87164 2124 ft 0 kts 136°
2026-04-25 01:23 -23.22078 -45.87074 2124 ft 54 kts 134°
2026-04-25 01:24 -23.22529 -45.86592 2191 ft 118 kts 135°
2026-04-25 01:24 -23.23171 -45.85899 2600 ft 145 kts 133°
2026-04-25 01:24 -23.23904 -45.85106 3441 ft 157 kts 133°
2026-04-25 01:24 -23.24508 -45.84447 4198 ft 160 kts 133°
2026-04-25 01:25 -23.25284 -45.83605 5129 ft 164 kts 133°
2026-04-25 01:25 -23.26079 -45.82738 6039 ft 167 kts 133°
2026-04-25 01:25 -23.26897 -45.81849 6927 ft 171 kts 133°
2026-04-25 01:25 -23.27725 -45.80947 7782 ft 175 kts 133°
2026-04-25 01:26 -23.28729 -45.80256 8605 ft 181 kts 168°
2026-04-25 01:26 -23.29918 -45.80526 9429 ft 181 kts 215°
2026-04-25 01:26 -23.30912 -45.81316 10250 ft 182 kts 220°
2026-04-25 01:26 -23.31666 -45.82322 11049 ft 177 kts 245°
2026-04-25 01:27 -23.32401 -45.83407 11860 ft 180 kts 234°
2026-04-25 01:27 -23.33130 -45.84479 12622 ft 181 kts 238°
2026-04-25 01:27 -23.33875 -45.85554 13356 ft 183 kts 238°
2026-04-25 01:28 -23.35385 -45.87780 14667 ft 193 kts 238°
2026-04-25 01:28 -23.36153 -45.88908 14688 ft 176 kts 238°
2026-04-25 01:28 -23.36911 -45.90035 13892 ft 203 kts 238°
2026-04-25 01:28 -23.37776 -45.91325 12889 ft 226 kts 237°
2026-04-25 01:29 -23.38715 -45.92712 11889 ft 235 kts 237°
2026-04-25 01:29 -23.39675 -45.94128 10869 ft 240 kts 236°
2026-04-25 01:29 -23.40680 -45.95615 9603 ft 250 kts 236°
2026-04-25 01:29 -23.41670 -45.97079 9007 ft 231 kts 236°
2026-04-25 01:30 -23.42605 -45.98456 8995 ft 221 kts 236°
2026-04-25 01:30 -23.43509 -45.99794 8999 ft 221 kts 236°
2026-04-25 01:30 -23.44431 -46.01160 9000 ft 223 kts 236°
2026-04-25 01:30 -23.45347 -46.02516 9000 ft 223 kts 236°
2026-04-25 01:31 -23.46263 -46.03876 9000 ft 223 kts 236°
2026-04-25 01:31 -23.47176 -46.05228 9000 ft 223 kts 236°
2026-04-25 01:31 -23.48094 -46.06589 9000 ft 223 kts 236°
2026-04-25 01:31 -23.49024 -46.07968 9000 ft 224 kts 236°
2026-04-25 01:32 -23.49945 -46.09335 9000 ft 224 kts 236°
2026-04-25 01:32 -23.50855 -46.10686 9002 ft 224 kts 236°
2026-04-25 01:32 -23.51767 -46.12040 9003 ft 224 kts 236°
2026-04-25 01:32 -23.52682 -46.13399 9005 ft 224 kts 236°
2026-04-25 01:33 -23.53606 -46.14772 9008 ft 224 kts 236°
2026-04-25 01:33 -23.54525 -46.16138 9010 ft 224 kts 236°
2026-04-25 01:33 -23.55458 -46.17522 9013 ft 225 kts 236°
2026-04-25 01:33 -23.56376 -46.18888 9015 ft 225 kts 236°
2026-04-25 01:34 -23.57302 -46.20265 9017 ft 225 kts 236°
2026-04-25 01:34 -23.58228 -46.21641 9019 ft 225 kts 236°
2026-04-25 01:34 -23.59147 -46.23011 9021 ft 225 kts 236°
2026-04-25 01:34 -23.60063 -46.24373 9021 ft 219 kts 236°
2026-04-25 01:35 -23.60960 -46.25708 9022 ft 216 kts 236°
2026-04-25 01:35 -23.61840 -46.27019 9024 ft 215 kts 236°
2026-04-25 01:35 -23.62723 -46.28334 9025 ft 214 kts 236°
2026-04-25 01:35 -23.63599 -46.29638 9026 ft 214 kts 236°
2026-04-25 01:36 -23.64478 -46.30949 9027 ft 214 kts 236°
2026-04-25 01:36 -23.65360 -46.32264 9027 ft 214 kts 236°
2026-04-25 01:36 -23.66242 -46.33578 9027 ft 214 kts 236°
2026-04-25 01:36 -23.67120 -46.34888 9027 ft 214 kts 236°
2026-04-25 01:37 -23.67990 -46.36185 9027 ft 214 kts 236°
2026-04-25 01:37 -23.68877 -46.37507 9027 ft 214 kts 236°
2026-04-25 01:37 -23.69740 -46.38796 9027 ft 214 kts 236°
2026-04-25 01:37 -23.70622 -46.40113 9027 ft 214 kts 236°
2026-04-25 01:38 -23.71495 -46.41416 9027 ft 214 kts 236°
2026-04-25 01:38 -23.72377 -46.42733 9027 ft 214 kts 236°
2026-04-25 01:38 -23.73245 -46.44031 9027 ft 214 kts 236°
2026-04-25 01:38 -23.74122 -46.45342 9027 ft 213 kts 236°
2026-04-25 01:39 -23.75004 -46.46660 9027 ft 214 kts 236°
2026-04-25 01:39 -23.75879 -46.47969 9027 ft 213 kts 236°
2026-04-25 01:39 -23.76748 -46.49268 9027 ft 213 kts 236°
2026-04-25 01:39 -23.77628 -46.50584 9027 ft 213 kts 236°
2026-04-25 01:40 -23.78503 -46.51894 9027 ft 213 kts 236°
2026-04-25 01:40 -23.79377 -46.53202 9027 ft 213 kts 236°
2026-04-25 01:40 -23.80237 -46.54490 9027 ft 213 kts 236°
2026-04-25 01:40 -23.81115 -46.55804 9027 ft 213 kts 236°
2026-04-25 01:41 -23.81994 -46.57121 9027 ft 213 kts 236°
2026-04-25 01:41 -23.82863 -46.58423 9027 ft 213 kts 236°
2026-04-25 01:41 -23.83731 -46.59724 9027 ft 213 kts 236°
2026-04-25 01:41 -23.84554 -46.61074 9023 ft 211 kts 249°
2026-04-25 01:42 -23.84569 -46.62603 9032 ft 203 kts 295°
2026-04-25 01:42 -23.83744 -46.63825 9033 ft 200 kts 318°
2026-04-25 01:42 -23.82652 -46.64753 9029 ft 200 kts 326°
2026-04-25 01:42 -23.81528 -46.65564 9028 ft 200 kts 329°
2026-04-25 01:43 -23.80462 -46.66285 9028 ft 199 kts 329°
2026-04-25 01:43 -23.79187 -46.67135 9028 ft 199 kts 330°